Hors Challenge

Les 15 km Métropole de Liège (6.80 km)

dimanche 02 mai 2021

Le Classement original se trouve sur : http://www.chronorace.be        
 
LES 15 KM MÉTROPOLE DE LIÈGE
DISTANCE : 6.80 km
dimanche 02 mai 2021
 
Place Dos NOM Equipe Catégorie Pl/cat temps temps/km Vitesse
1 6755 FINTOLINI DORIAN ATC - JOGGING P SH 1 0:20:47 03:03 19.63
2 6754 DEGEY BRICE RFCL JOGGING PL SH 2 0:21:30 03:10 18.98
3 6616 NOEL ENZO JOGGINGPLUS SH 3 0:21:37 03:11 18.87
4 6731 GILON SELIM QUATRO VINO RUN SH 4 0:23:03 03:23 17.70
5 6612 SLEGERS BRUNO URBANTRISPORTS SH 5 0:23:14 03:25 17.56
6 6815 KLEIN SAMUEL   V1 1 0:23:25 03:27 17.42
7 6817 VANDEPUTTE EDDY AC MALMEDY V2 1 0:23:50 03:30 17.12
8 6559 VEGA SEVERINO SERAING ATHLÉTI V2 2 0:24:17 03:34 16.80
9 6557 GUERRINI FABRICE SERAING ATHLÉTI SH 6 0:24:23 03:35 16.73
10 6885 GRECO COOPMANS ANTONIO TCBM SH 7 0:24:44 03:38 16.50
11 40238 MAHIA SEBASTIEN RUN ATTITUDE SH 8 0:24:45 03:38 16.48
12 6574 KABEYA DORIAN   SH 9 0:24:51 03:39 16.42
13 6554 ESTEBEZ ANDRÉ SERAING ATHL V1 2 0:24:53 03:40 16.40
14 6555 LOPEZ NAVA DIDIER SERAING ATHL V2 3 0:24:54 03:40 16.38
15 6482 OLIESLAGER GILLES TEAM SOLIDARIS SH 10 0:25:04 03:41 16.28
16 6576 ASTOLFI DAMIEN   V1 3 0:25:07 03:42 16.24
17 6195 JACQUERIE PAUL   SH 11 0:25:36 03:46 15.94
18 6935 PIRENNE ANTOINE   SH 12 0:25:38 03:46 15.92
19 6943 MORTIER MAXIME RFC LIÉGEOIS RU SH 13 0:25:57 03:49 15.72
20 6213 DOUCET LUCAS   SH 14 0:26:00 03:49 15.69
21 6812 VITA GAETANO RFCL V1 4 0:26:07 03:50 15.62
22 6370 BROSE JÉRÔME HELMO SH 15 0:26:09 03:51 15.60
23 6788 DELBECQ SELIM SERAING ATHLÉTI SH 16 0:26:09 03:51 15.60
24 6771 THOMASSIN THIBAUT SERAING ATHLETI V1 5 0:26:10 03:51 15.59
25 6790 BAUDINET JEAN-PIERRE RFCL JOGGING+ V2 4 0:26:14 03:51 15.55
26 6150 VANDENBORRE VINCENT   SH 17 0:26:15 03:52 15.54
27 6789 BAUDINET CAROLINE RFCL SD 1 0:26:16 03:52 15.53
28 40239 GREGOIRE VALENTIN   SH 18 0:26:27 03:53 15.42
29 6476 GIUDICIANNI MICHELE HERSTAL SH 19 0:27:09 04:00 15.03
30 40128 HENROTTIN GAEL TEAM SOLIDARIS SH 20 0:27:22 04:01 14.91
31 6901 LAMBOTTE PASCAL SERAING ATHL V2 5 0:27:22 04:01 14.91
32 6930 LEBRUN MAXIME   SH 21 0:27:23 04:02 14.90
33 6748 CHRISTODOULEAS PATRICK JOG IN ATTITUDE V2 6 0:27:25 04:02 14.88
34 6933 RADERMECKER ARTHUR   SH 22 0:27:26 04:02 14.87
35 6831 DIAZ GARCIA GAVIN   SH 23 0:27:28 04:02 14.85
36 6841 LIMPITSHI KEN   SH 24 0:27:29 04:03 14.84
37 6680 AERTS ALEXANDRE   SH 25 0:27:51 04:06 14.65
38 6343 CHOMBART CLÉMENT   SH 26 0:27:56 04:06 14.61
39 6283 BRISBOIS JÉRÉMY   SH 27 0:28:01 04:07 14.56
40 6519 BACKAERT ALAN   SH 28 0:28:05 04:08 14.53
41 6842 BROSE ARNAUD   SH 29 0:28:21 04:10 14.39
42 6477 VANBRABANT RAPHAEL   V1 6 0:28:30 04:11 14.31
43 6344 KANTE MARTIN   SH 30 0:28:43 04:13 14.21
44 6187 VUEGEN YARO   JH 1 0:28:46 04:14 14.18
45 6541 DENYS AUGUSTUS   SH 31 0:28:53 04:15 14.12
46 6829 LEMIRE FRÉDÉRIC LIÈGE POMPIERS V1 7 0:28:54 04:15 14.12
47 6544 BRION VIKTOR   SH 32 0:29:00 04:16 14.07
48 6822 JUPRELLE DYLAN   SH 33 0:29:05 04:17 14.03
49 6819 JOSEPH MAX TCBM JH 2 0:29:06 04:17 14.02
50 6960 PIETTE NICOLAS   SH 34 0:29:15 04:18 13.95
51 6975 ROBERT MALO RESA JH 3 0:29:28 04:20 13.85
52 6546 LESCURE ESTEBAN   SH 35 0:29:32 04:21 13.81
53 6563 TYCHON ANTOINE HELMO SH 36 0:29:35 04:21 13.79
54 6158 LAZZARI HUGO   SH 37 0:29:44 04:22 13.72
55 6422 PIROTON JEREMY   SH 38 0:29:46 04:23 13.71
56 6903 SCIFO ROSARIO   V2 7 0:29:51 04:23 13.67
57 6937 BRÉVER CHLOÉ RESA SD 2 0:29:55 04:24 13.64
58 6531 LIMPITSHI KENNETH   SH 39 0:29:57 04:24 13.62
59 6328 RUTH MATTEO   SH 40 0:29:59 04:25 13.61
60 6925 BOQUIA MAXIME   SH 41 0:30:05 04:25 13.56
61 6263 JENNIGES JACQUES   SH 42 0:30:20 04:28 13.45
62 6936 LOPEZ LOPEZ SÉBASTIEN   SH 43 0:30:22 04:28 13.44
63 6567 CUISSET FLORENT HELMO SH 44 0:30:24 04:28 13.42
64 6679 PIRARD KILIAN   SH 45 0:30:28 04:29 13.39
65 6926 MELOTTE CHARLES   SH 46 0:30:42 04:31 13.29
66 6268 MARCHAL BERNARD   SH 47 0:30:43 04:31 13.28
67 6382 JACQUES MARTIN   SH 48 0:30:43 04:31 13.28
68 6668 PHILIPPE ANTOINE VILLE DE LIÈGE SH 49 0:30:44 04:31 13.27
69 6870 SPRUMONT THOMAS CONFRÉRIE DU SA SH 50 0:30:48 04:32 13.25
70 6564 CAWEZ ARNAUD   SH 51 0:30:50 04:32 13.23
71 6405 MUHUZA LUCIDE HEL (HAUTE ECOL SH 52 0:30:56 04:33 13.19
72 6767 MOSSAY ALYSSON   SD 3 0:30:59 04:33 13.17
73 6581 HAWAUX ROGER JIA V2 8 0:31:00 04:34 13.16
74 40236 DERCQ MARTIN MARANTHO SH 53 0:31:06 04:34 13.12
75 6229 CARAPELLE LISA   SD 4 0:31:08 04:35 13.10
76 6929 FALCONE FABIEN   SH 54 0:31:10 04:35 13.09
77 6551 BERGENHUIZEN FLORENT   SH 55 0:31:19 04:36 13.03
78 6516 BAEKE LUDOVIC   SH 56 0:31:21 04:37 13.01
79 6847 RADERMECKER MAXENCE   JH 4 0:31:25 04:37 12.99
80 6844 VERPOORTEN BENJAMIN   SH 57 0:31:25 04:37 12.99
81 6723 GODELLE PIERRE   SH 58 0:31:26 04:37 12.98
82 6134 PIERRON JEAN-CLAUDE SERAING RUNNERS V2 9 0:31:26 04:37 12.98
83 6515 MORTROUX MICKAEL   SH 59 0:31:28 04:38 12.97
84 6675 LAROSE MARTIN VILLE DE LIÈGE SH 60 0:31:29 04:38 12.96
85 6362 KOLLER LOUIS HELMO SH 61 0:31:33 04:38 12.93
86 6521 ELKABBOUZI IKRAME   SD 5 0:31:41 04:40 12.88
87 6518 ALEXANDRE PHILIPPE   V1 8 0:31:41 04:40 12.88
88 6667 LOES PIERRE VILLE DE LIÈGE V1 9 0:31:52 04:41 12.80
89 6503 JACQUEMIN JULIEN   SH 62 0:31:56 04:42 12.78
90 6691 LECHANTEUR BERNARD VILLE DE LIÈGE V2 10 0:32:15 04:45 12.65
91 6687 VANDEREYKEN ARON   JH 5 0:32:23 04:46 12.60
92 6971 PARTHOENS QUENTIN   SH 63 0:32:28 04:46 12.57
93 6704 PONCELET JEAN-FRANÇOIS VILLE DE LIÈGE V1 10 0:32:29 04:47 12.56
94 6887 DEVILLERS PAULINE   JF 1 0:32:33 04:47 12.53
95 6257 ROYEN JEAN-RÉMY   SH 64 0:32:37 04:48 12.51
96 6669 SIMON VICTOR RESA JH 6 0:32:37 04:48 12.51
97 6909 TRIBOLET CELINE JCPMF FLAWINNE SD 6 0:32:43 04:49 12.47
98 6813 DELVIGNE MARGOT   JF 2 0:32:49 04:50 12.43
99 6537 PARENT THOMAS   SH 65 0:32:54 04:50 12.40
100 6780 MARTIN JEAN-MANUEL RFC LIÈGE ATHLÉ V3 1 0:32:55 04:50 12.39
101 6712 THYS BAPTISTE   SH 66 0:32:57 04:51 12.38
102 6596 CSIK CLARA RFCL ATHLÉTISME JF 3 0:32:57 04:51 12.38
103 6595 CSIK NICOLAS RFCL ATHLÉTISME V1 11 0:32:57 04:51 12.38
104 6732 GUENOT JORDAN   SH 67 0:32:58 04:51 12.38
105 6962 ROGER VINCENT   SH 68 0:33:03 04:52 12.34
106 6740 MULDERS ESTELLE RFCL ROAD RUNNE SD 7 0:33:03 04:52 12.34
107 6111 DEWAEGHENEIRE EMILE   SH 69 0:33:05 04:52 12.33
108 6218 DEJARDIN CHRISTOPHE   SH 70 0:33:05 04:52 12.33
109 6485 SENARD LUCILE   SD 8 0:33:08 04:52 12.31
110 6483 BOURGAUX AURÉLIEN   SH 71 0:33:08 04:52 12.31
111 6800 MIROSHNYKOV DMYTRO   SH 72 0:33:12 04:53 12.29
112 6995 DELYE EMMANUEL   V2 11 0:33:13 04:53 12.28
113 6923 HUSQUINET PAUL   SH 73 0:33:23 04:55 12.22
114 6270 COLLARD REGNAULD   SH 74 0:33:24 04:55 12.21
115 6956 SOULIER MAXIME   SH 75 0:33:27 04:55 12.20
116 6845 YEBOAH KOFI   SH 76 0:33:33 04:56 12.16
117 6345 MARCHESE ALEXANDRE   SH 77 0:33:41 04:57 12.11
118 40237 RANO ANTHONY   SH 78 0:33:41 04:57 12.11
119 6249 LAMBOULÉ CLARA   SD 9 0:33:49 04:58 12.06
120 6733 SADKI ADIL VILLE DE LIÈGE SH 79 0:33:52 04:59 12.05
121 6749 VANHERREWEGGE MIKE   SH 80 0:33:55 04:59 12.03
122 6770 BRUWIER LUCIE TCBM JF 4 0:33:56 04:59 12.02
123 6269 SAINT-MARD NICOLAS   SH 81 0:34:00 05:00 12.00
124 6308 PICONE DORIAN   SH 82 0:34:05 05:01 11.97
125 6794 MASSIN ANAIS   SH 83 0:34:05 05:01 11.97
126 6776 MUTABESHA DAVID   SH 84 0:34:09 05:01 11.95
127 6804 DENGIS NICOLAS HELM14666 SH 85 0:34:10 05:01 11.94
128 6678 KLEINERMANN CAROLINE VILLE DE LIÈGE A1 1 0:34:11 05:02 11.93
129 6582 DUMONT MARIANNE SERAING ATHLÉTI A2 1 0:34:11 05:02 11.93
130 40426 COLLIN ALEXANDRE   SH 86 0:34:11 05:02 11.93
131 6741 CELINE KALIMIRA RFCL ROAD RUNNE SD 10 0:34:17 05:03 11.90
132 6292 LEERS LARISSA   SD 11 0:34:17 05:03 11.90
133 6504 JACQUEMIN PATRICK JACQUEMIN V2 12 0:34:24 05:04 11.86
134 6349 MAKOUKGI MICHEL HELMO SH 87 0:34:25 05:04 11.85
135 6619 CAURLA HÉLÈNE   SD 12 0:34:25 05:04 11.85
136 6336 MOREAU MARTIN   SH 88 0:34:29 05:04 11.83
137 40462 PETERS ALAIN   V1 12 0:34:29 05:04 11.83
138 6650 TERRON BARTHO   V2 13 0:34:30 05:04 11.83
139 6934 BRÉVER EVE RESA SD 13 0:34:31 05:05 11.82
140 6873 ELHAJJAJY SAID JCPMF ROCOURT V1 13 0:34:37 05:05 11.79
141 6737 LIBION MARC JCPMF FLAWINNE V2 14 0:34:46 05:07 11.73
142 6588 MÉLON JULIEN JOG'IN ATTITUDE SH 89 0:34:48 05:07 11.72
143 6478 VANBRABANT HUGO   JH 7 0:34:55 05:08 11.68
144 6313 JEMINE GRÉGORY   SH 90 0:34:56 05:08 11.68
145 6522 LOUIS VICTORIEN HELMO SH 91 0:34:57 05:08 11.67
146 6376 HICK ROMAIN HELMO SH 92 0:34:57 05:08 11.67
147 6685 HENRY ELINE   SD 14 0:34:59 05:09 11.66
148 6686 BESSELING ELISA   SD 15 0:34:59 05:09 11.66
149 6566 CAWEZ FRÉDÉRIC   SH 93 0:35:00 05:09 11.66
150 6746 RHIMI MEHDI VILLE DE LIÈGE JH 8 0:35:00 05:09 11.66
151 6523 SASSO???? ALESSANDRO HELMO SH 94 0:35:05 05:10 11.63
152 6251 KUZNIK DORIAN   SH 95 0:35:07 05:10 11.62
153 6753 LERHO GILLES VILLE DE LIÈGE SH 96 0:35:10 05:10 11.60
154 6752 PONDANT CHLOÉ VILLE DE LIÈGE SD 16 0:35:10 05:10 11.60
155 6379 HOSSAY LUCAS HELMO SH 97 0:35:17 05:11 11.56
156 6640 CASTAGNA ALEXIS   SH 98 0:35:17 05:11 11.56
157 6421 HENDRICÉ RÉMY HELMO SH 99 0:35:17 05:11 11.56
158 6840 BRISBOIS NICOLAS   SH 100 0:35:21 05:12 11.54
159 6861 WASSON KÉVIN HELMO SH 101 0:35:22 05:12 11.54
160 6703 BOULANGE PIERRE VILLE DE LIÈGE SH 102 0:35:23 05:12 11.53
161 6877 LACROIX MARTIN CONFRÉRIE DU SA SH 103 0:35:24 05:12 11.52
162 6481 MALEMPREZ ADRIEN   SH 104 0:35:24 05:12 11.52
163 6779 CUPELLI SALVATORE RFCL V3 2 0:35:26 05:13 11.51
164 6868 BELVAUX BENJAMIN   V1 14 0:35:26 05:13 11.51
165 6768 REUTER CYRIELLE   SD 17 0:35:30 05:13 11.49
166 6814 VANDEVEN CHARLOTTE TCBM JF 5 0:35:30 05:13 11.49
167 40228 BELAIRE JULIEN   SH 105 0:35:33 05:14 11.48
168 6695 LMSAADI NOUREDDINE VILLE DE LIÈGE JH 9 0:35:36 05:14 11.46
169 6267 WAUTERS THOMAS   SH 106 0:35:39 05:15 11.44
170 6769 BRUWIER CLARA   JF 6 0:35:44 05:15 11.42
171 6963 STOKIS LIONEL   SH 107 0:35:46 05:16 11.41
172 6848 RADERMECKER CORENTIN   JH 10 0:35:47 05:16 11.40
173 40427 TOLE MARIE   SD 18 0:35:48 05:16 11.40
174 6389 MOEYS SYLVIE HELMO SD 19 0:35:51 05:16 11.38
175 6250 ROZÉ HUGO   SH 108 0:36:00 05:18 11.33
176 6700 KANYANDA PATRIBE VILLE DE LIÈGE SH 109 0:36:05 05:18 11.31
177 6381 BOSSELOIR TOM   SH 110 0:36:06 05:19 11.30
178 6361 CLAES NICOLAS   SH 111 0:36:07 05:19 11.30
179 6992 LEGRAND SASHA   SD 20 0:36:09 05:19 11.29
180 6772 FRISQUE ALEXIS   V1 15 0:36:10 05:19 11.28
181 40431 DANIELS DOMINIQUE TEAM SOLIDARIS V2 15 0:36:10 05:19 11.28
182 6629 MATTHYS CORALIE   SD 21 0:36:11 05:19 11.28
183 6277 HUET VINCENT   SH 112 0:36:11 05:19 11.28
184 40129 BONNI JULIE TEAM SOLIDARIS SD 22 0:36:12 05:19 11.27
185 6273 BRONCARD CYRIL   SH 113 0:36:12 05:19 11.27
186 6711 CUYVERS JEAN-MICHEL VILLE DE LIÈGE V1 16 0:36:14 05:20 11.26
187 6179 BORREMANS GILLES VITALITRI SH 114 0:36:16 05:20 11.25
188 6271 PRAVATA MATHIAS   SH 115 0:36:16 05:20 11.25
189 6883 BRUGMANS VERONIQUE   A2 2 0:36:18 05:20 11.24
190 6400 MAYÉRUS MAËLLE   SD 23 0:36:18 05:20 11.24
191 6895 GUION HÉLÈNE   SD 24 0:36:22 05:21 11.22
192 6535 TODOROVSKI KRISTINA   SD 25 0:36:25 05:21 11.20
193 6758 GOCHEL VLADIMIR   SH 116 0:36:28 05:22 11.19
194 6375 DE SLOOVERE CLARA   SD 26 0:36:29 05:22 11.18
195 6594 ROGISTER SÉBASTIEN   SH 117 0:36:29 05:22 11.18
196 40456 VLIEGEN NICOLAS PLOPPES ÉQUIPE SH 118 0:36:30 05:22 11.18
197 6191 OTTE THOMAS   SH 119 0:36:32 05:22 11.17
198 6599 SLEGERS THOMAS   SH 120 0:36:32 05:22 11.17
199 6862 BÉTERMIER ESTEBAN HELMO SH 121 0:36:36 05:23 11.15
200 6688 BEAUFAYS CHLOÉ VILLE DE LIÈGE A1 2 0:36:38 05:23 11.14
201 6353 DELCOURT RACHEL   A1 3 0:36:40 05:24 11.13
202 6331 BOMBOIR CAMILLE   SD 27 0:36:41 05:24 11.12
203 6949 CASSOU CLAIRE   SD 28 0:36:43 05:24 11.11
204 40455 JENTGES JUSTIN PLOPPES ÉQUIPE SH 122 0:36:43 05:24 11.11
205 6820 VANDEVEN FÉLIX   JH 11 0:36:50 05:25 11.08
206 6821 TENEY LAURENCE TCBM SD 29 0:36:51 05:25 11.07
207 40123 DOMINIQUE MANON   SD 30 0:36:56 05:26 11.05
208 6641 LORENZON LORIS   SH 123 0:36:56 05:26 11.05
209 6429 DENONCIN CECILE   A2 3 0:37:04 05:27 11.01
210 6904 LEFRERE MARJORIE   SD 31 0:37:05 05:27 11.00
211 6869 LEVÊQUE XAVIER CONFRÉRIE DU SA SH 124 0:37:05 05:27 11.00
212 6747 DECONINCK RAYAN VILLE DE LIÈGE JH 12 0:37:06 05:27 11.00
213 6415 MRAZ QUENTIN HELMO SH 125 0:37:07 05:28 10.99
214 6414 SIMONS MICHEL HELMO SH 126 0:37:08 05:28 10.99
215 6609 STRASSER EMY HELMO SD 32 0:37:08 05:28 10.99
216 6278 NEVEN ELISE   SD 33 0:37:09 05:28 10.98
217 6672 PREUDHOMME LOUIS VILLE DE LIÈGE SH 127 0:37:09 05:28 10.98
218 40454 DESHOULLIERES JULIE PLOPPES ÉQUIPE SD 34 0:37:09 05:28 10.98
219 6101 HOUBA LAURÉLINE PLOPPES ÉQUIPE SD 35 0:37:10 05:28 10.98
220 6282 CHARLES LOLA   SD 36 0:37:10 05:28 10.98
221 6281 HANNOTTE ADÈLE   SD 37 0:37:10 05:28 10.98
222 6436 ATTARDO ANTHONY HELMO SH 128 0:37:15 05:29 10.95
223 6266 GILAIN CLÉMENCE   SH 129 0:37:16 05:29 10.95
224 6265 SAEGERMAN BASTIEN   SH 130 0:37:17 05:29 10.94
225 6617 BARTOCCI DANILO   V2 16 0:37:17 05:29 10.94
226 6341 MÉLOT LÉA   SD 38 0:37:19 05:29 10.93
227 6224 BOUCHEZ HUGO   SH 131 0:37:19 05:29 10.93
228 6547 MATTIA DI GIOVANNI   JH 13 0:37:22 05:30 10.92
229 6378 TSHAMPA ANDERS HELMO SH 132 0:37:22 05:30 10.92
230 6183 JANONN THIBAULT ESN SH 133 0:37:23 05:30 10.91
231 6545 MARIA SÉBASTIEN   SH 134 0:37:24 05:30 10.91
232 6657 BABE MICHEL PAS V2 17 0:37:31 05:31 10.87
233 6260 GOUGNARD CLÉMENTINE   SD 39 0:37:32 05:31 10.87
234 6467 MEODE HUGO RESA JH 14 0:37:33 05:31 10.86
235 6792 PALMAERS GAËL   SH 135 0:37:35 05:32 10.86
236 6335 SCHIRRA LAURIE   SD 40 0:37:36 05:32 10.85
237 6423 GOURDANGE LOLA HELMO SD 41 0:37:43 05:33 10.82
238 6611 CLOES ELOISE HELMO SD 42 0:37:46 05:33 10.80
239 6622 PEZZETTI FIONA   SD 43 0:37:46 05:33 10.80
240 6621 GROSNICKEL MAXENCE   SH 136 0:37:47 05:33 10.80
241 6610 CRUPI NICOLAS HELMO SH 137 0:37:47 05:33 10.80
242 6699 MOUSTRHAM OMAR VILLE DE LIÈGE JH 15 0:37:51 05:34 10.78
243 6647 BASTINN PASCAL   V1 17 0:37:59 05:35 10.74
244 6763 DETRY LUCIE   SD 44 0:38:00 05:35 10.74
245 6787 DUBOIS CLÉMENCE   SH 138 0:38:00 05:35 10.74
246 6140 PLOUMEN GUILLAUME ULIÈGE SH 139 0:38:00 05:35 10.74
247 6506 KIP TANGUY   SH 140 0:38:02 05:36 10.73
248 6744 MAZZILLI MARTIN   SH 141 0:38:06 05:36 10.71
249 6613 HUYGHEBAERT ELSA HELMO SD 45 0:38:06 05:36 10.71
250 6742 GABARD MAELLE   SD 46 0:38:07 05:36 10.70
251 6480 BARNABA ANDREA MILAN AC SH 142 0:38:10 05:37 10.69
252 6999 MASSARD LOUIS   SH 143 0:38:10 05:37 10.69
253 6720 BOGAERTS ALINOË   SD 47 0:38:10 05:37 10.69
254 6998 MERAHI LEÏLA   SD 48 0:38:10 05:37 10.69
255 6206 DOUIN ALIÉNOR ARBALÉTRIERS SD 49 0:38:11 05:37 10.68
256 6724 SOCHELEAU MANON   SD 50 0:38:11 05:37 10.68
257 6859 OGER MARIE-CLAIRE NA A1 4 0:38:12 05:37 10.68
258 6721 LEFRANC CÉSAR   SH 144 0:38:12 05:37 10.68
259 6896 SCHMETZ MAÏTÉ   SD 51 0:38:12 05:37 10.68
260 6373 LAMBERT MARIE HELMO SD 52 0:38:13 05:37 10.68
261 6727 SEVRIN LAETITIA   SD 53 0:38:13 05:37 10.68
262 6520 FERRETTI FÉLIX HELMO SH 145 0:38:14 05:37 10.67
263 6288 RIGO JULIEN   SH 146 0:38:15 05:38 10.67
264 6435 RUZZICONI CLARA HELMO SD 54 0:38:16 05:38 10.66
265 6175 BRICHARD LAURA   SD 55 0:38:18 05:38 10.65
266 6713 TRIDETTI STÉPHANE   SH 147 0:38:19 05:38 10.65
267 6174 GAZON LISA   SD 56 0:38:20 05:38 10.64
268 6507 NANFACK NOUTSAWO HANS WILLIAM   SH 148 0:38:20 05:38 10.64
269 6406 MAHY LARA   SD 57 0:38:22 05:39 10.63
270 6151 CASAS MORENO DAVID FOOD TALENTS SH 149 0:38:23 05:39 10.63
271 6432 CORDARO LAETITIA RESA SD 58 0:38:26 05:39 10.62
272 6696 DO NASCIMENTO JOANA   SD 59 0:38:26 05:39 10.62
273 6705 SANTINO LULIANO VILLE DE LIÈGE JH 16 0:38:27 05:39 10.61
274 6706 COLSOUL NELLY VILLE DE LIÈGE JF 7 0:38:27 05:39 10.61
275 6189 LEROUX PIERRE RESA V1 18 0:38:29 05:40 10.60
276 40460 RUSSO SAMUEL   V1 19 0:38:29 05:40 10.60
277 6891 PITER JULIEN VBC HERSTAL SH 150 0:38:31 05:40 10.59
278 6888 QUALLA MATHIAS VBC HERSTAL SH 151 0:38:31 05:40 10.59
279 6726 DOUNIAUX LOIC   SH 152 0:38:32 05:40 10.59
280 6433 RENTMEISTER MARIKA JE COURS POUR M JF 8 0:38:32 05:40 10.59
281 6927 SEQUARIS SIMON   SH 153 0:38:33 05:40 10.58
282 6728 RAHIER MAXIME   SH 154 0:38:33 05:40 10.58
283 6987 DESSARD CATHERINE   SD 60 0:38:34 05:40 10.58
284 6938 HUBENS ANNE-CELINE HUBENS SD 61 0:38:35 05:40 10.57
285 6951 HUBENS LAURINE   SD 62 0:38:36 05:41 10.57
286 6219 SOTIROPOULOU IOANNA   SD 63 0:38:38 05:41 10.56
287 40131 DUQUENNE GAËLLE TEAM SOLIDARIS SD 64 0:38:39 05:41 10.56
288 6128 NICOLAY ELIOTT COACHED_BY_PIET JH 17 0:38:39 05:41 10.56
289 6392 ROURE EMELYNE   SD 65 0:38:41 05:41 10.55
290 6614 MANGEN CHRISSY   SD 66 0:38:48 05:42 10.51
291 6910 JANS VANESSA TCBM A1 5 0:38:53 05:43 10.49
292 6664 MORENO ALIX VILLE DE LIÈGE SD 67 0:38:53 05:43 10.49
293 6886 NGUYEN DANG DELPHINE TCBM A1 6 0:38:54 05:43 10.49
294 6785 KLEIN CELIA   JF 9 0:38:56 05:44 10.48
295 6786 HOUGARDY ESTHER LIÈGE MOSAN SYN SD 68 0:38:56 05:44 10.48
296 6798 EMMA BRUWIER MOSAN SD 69 0:38:56 05:44 10.48
297 6858 THIL ZOÉ   SD 70 0:38:58 05:44 10.47
298 6773 DISTER DIANE   SD 71 0:38:58 05:44 10.47
299 6900 RITROVATO LÉA   SD 72 0:39:00 05:44 10.46
300 6899 HIRTZ MANON   SD 73 0:39:00 05:44 10.46
301 40429 BEUKEN HÉLÈNE   SD 74 0:39:01 05:44 10.46
302 6207 CHOJNACKI MARTIN VILLE DE LIÈGE SH 155 0:39:01 05:44 10.46
303 6623 DETILLOUX FABRICE   V1 20 0:39:04 05:45 10.44
304 6188 DE ROP ELKE   A1 7 0:39:09 05:45 10.42
305 6508 KREMER ROMAIN SERUNNERS V2 18 0:39:11 05:46 10.41
306 6884 CASSIERS VIRGINIE   A1 8 0:39:12 05:46 10.41
307 6982 ANDRÉ LORALIE   SD 75 0:39:12 05:46 10.41
308 6430 LAVIGNE LAURENCE   SD 76 0:39:15 05:46 10.39
309 6997 MELARD ARIANE   A1 9 0:39:15 05:46 10.39
310 6196 MARICHAL LAURA   SD 77 0:39:18 05:47 10.38
311 6907 UMINA LETIZIA   SD 78 0:39:20 05:47 10.37
312 6851 TSAMO PATRICK RAOUL   SH 156 0:39:22 05:47 10.36
313 6852 BALEGAMIRE BARAKA REMY   SH 157 0:39:22 05:47 10.36
314 6878 LOMBA LÉA   SD 79 0:39:22 05:47 10.36
315 6965 HENRY ELISA   SD 80 0:39:23 05:48 10.36
316 6988 VANSIGHEN THOMAS   SH 158 0:39:26 05:48 10.35
317 6157 PATINY JEREMY FOOD TALENTS SH 159 0:39:30 05:49 10.33
318 6642 LORENZON LUCA   SH 160 0:39:31 05:49 10.32
319 6492 MALHERBE ÉMILIE   SD 81 0:39:32 05:49 10.32
320 6946 FELTEN ALICE   SD 82 0:39:32 05:49 10.32
321 6638 PETERS KARINE   A2 4 0:39:33 05:49 10.32
322 6637 STIENNON DOMINIQUE   A3 1 0:39:33 05:49 10.32
323 6148 ELISE RUELENS   SD 83 0:39:36 05:49 10.30
324 6306 SABATINI ANTHONY   SH 161 0:39:36 05:49 10.30
325 6491 LEGROS SALOMÉ   SD 84 0:39:36 05:49 10.30
326 6387 KEPPENNE NICO HELMO SH 162 0:39:36 05:49 10.30
327 6552 MEWISSEN OLIVIER   V1 21 0:39:37 05:50 10.30
328 6149 FLORIAN ROUSSELLE   SH 163 0:39:37 05:50 10.30
329 6412 PIRE CÉDRIC HELMO SH 164 0:39:37 05:50 10.30
330 6114 CNEZSEV MARIE   SD 85 0:39:37 05:50 10.30
331 6112 CNEZSEV NICOLAS   SH 165 0:39:38 05:50 10.29
332 6924 MUKHERJEE SAMPATH MCP SH 166 0:39:38 05:50 10.29
333 6560 ALAIMO JACQUELINE TEAM SOLIDARIS A1 10 0:39:40 05:50 10.29
334 6109 WARNIER MAEVA   SD 86 0:39:41 05:50 10.28
335 6279 HALBACH CHLOE   SD 87 0:39:41 05:50 10.28
336 6214 TAZIAUX OLIVIER RESA SH 167 0:39:41 05:50 10.28
337 6683 DOZIN TOM   JH 18 0:39:42 05:50 10.28
338 6684 COLLE NOÉMIE   SD 88 0:39:42 05:50 10.28
339 6113 DELVENNE VINCENT   SH 168 0:39:46 05:51 10.26
340 6978 LALLEMAND ALICE   SD 89 0:39:47 05:51 10.25
341 40457 ROMANO IVANA   SD 90 0:39:47 05:51 10.25
342 40458 HANIN LISA   SD 91 0:39:47 05:51 10.25
343 6979 NAEDENOEN KILIAN   SH 169 0:39:47 05:51 10.25
344 6358 DIGNEF TIBO HELMO SH 170 0:39:51 05:52 10.24
345 6626 VERPOORTEN CHRISTINE RUNTOGETHER A1 11 0:39:51 05:52 10.24
346 6420 ANTOINE PAULINE   SD 92 0:39:52 05:52 10.23
347 6312 BLONDEAU ALEXANE   SD 93 0:39:54 05:52 10.22
348 6652 EGGERMONT AMBRE   SD 94 0:39:56 05:52 10.22
349 6670 SIMON LOUISE RESA JF 10 0:39:59 05:53 10.20
350 6407 CASAMATTA LISA   SD 95 0:40:01 05:53 10.20
351 6469 SONVEAU THOMAS   SH 171 0:40:01 05:53 10.20
352 6719 DE MOURA DENYS VICTOR   SH 172 0:40:02 05:53 10.19
353 6470 ECHE LOUISE   SD 96 0:40:02 05:53 10.19
354 6718 BOONS ELODIE   SH 173 0:40:04 05:54 10.18
355 6585 NOBEN LAURINE   SD 97 0:40:11 05:55 10.15
356 6643 SLEGERS CEDRIC   V2 19 0:40:11 05:55 10.15
357 6286 HENROTAY NICOLAS   SH 174 0:40:12 05:55 10.15
358 6297 DUYSINX OPHELIE   SD 98 0:40:13 05:55 10.14
359 6369 CLOSE ESTELLE POWERPUFF GIRLS SD 99 0:40:14 05:55 10.14
360 6301 DRION ELISA   SD 100 0:40:14 05:55 10.14
361 6334 BOMANS VICTOR   SH 175 0:40:14 05:55 10.14
362 6110 LHOEST JULIE   SD 101 0:40:15 05:55 10.14
363 6368 HORRIE LYNN POWERPUFF GIRLS SD 102 0:40:15 05:55 10.14
364 6397 LOUIS MARINE HELMO SD 103 0:40:15 05:55 10.14
365 6333 DELSUPEXHE LIONEL   SH 176 0:40:15 05:55 10.14
366 6245 CAPONETTI ENZO   SH 177 0:40:15 05:55 10.14
367 6396 PEETERS MATHILDE HELMO SD 104 0:40:16 05:55 10.13
368 6303 HURET JÉRÔME   SH 178 0:40:16 05:55 10.13
369 40428 VERMEULEN EMILIE   SD 105 0:40:17 05:55 10.13
370 6799 KAZADI OPHELIE   SD 106 0:40:20 05:56 10.12
371 6989 MESTDAG JUSTIN   SH 179 0:40:24 05:56 10.10
372 6359 WELSCHEN MAŸLISS HELMO SD 107 0:40:26 05:57 10.09
373 6403 GIRALDO ANDRES   SH 180 0:40:28 05:57 10.08
374 6394 SCHMITZ AURORE HELMO SD 108 0:40:29 05:57 10.08
375 6402 CANDIDO FABRIZIA N/A SD 109 0:40:29 05:57 10.08
376 6289 MAREELS MARGAUX   SD 110 0:40:30 05:57 10.07
377 6558 ALAIMO CHRISTEL TEAM SOLIDARIS SD 111 0:40:31 05:58 10.07
378 6200 GODIN GREGORY   SH 181 0:40:31 05:58 10.07
379 6258 DELVAUX THEO   SH 182 0:40:32 05:58 10.07
380 6431 BOURGUIGNON CHARLOTTE MCM SD 112 0:40:33 05:58 10.06
381 6775 DECERF CÉLINE   SD 113 0:40:37 05:58 10.04
382 6276 MANSOOR SHAHJAHAN   SH 183 0:40:38 05:59 10.04
383 6774 BARZAL MICHAEL   SH 184 0:40:39 05:59 10.04
384 6287 REMACLE LOLA   SD 114 0:40:39 05:59 10.04
385 6838 HAUTEKEER ALEXIA   SD 115 0:40:40 05:59 10.03
386 6839 DALIMIER MARIE   SD 116 0:40:42 05:59 10.02
387 6366 ROSA YOANN HELMO SH 185 0:40:43 05:59 10.02
388 6322 MATHEI EDWIN   SH 186 0:40:45 06:00 10.01
389 6323 MOUTON ALEXANDRE   SH 187 0:40:45 06:00 10.01
390 6325 THEUNISSEN CATHERINE   A1 12 0:40:46 06:00 10.01
391 6324 FRANCK NICOLAS   SH 188 0:40:47 06:00 10.00
392 6894 NYSSEN MICHÈLE TEAM SOLIDARIS A2 5 0:40:47 06:00 10.00
393 6959 LACROIX ALICE   SD 117 0:40:47 06:00 10.00
394 6321 PETITFRÈRE YORIC   SH 189 0:40:47 06:00 10.00
395 6757 GOCHEL LUC   V2 20 0:40:48 06:00 10.00
396 6784 WAUTERS SARA   JF 11 0:40:52 06:01 9.98
397 6505 GILLOT LAURA FTT LIÈGE SD 118 0:40:52 06:01 9.98
398 6501 VANDERMOTTE ASHLEY FTT LIÈGE SD 119 0:40:53 06:01 9.98
399 6981 LEFÈVRE MÉLANIE   SD 120 0:40:54 06:01 9.97
400 6890 RESPEN SARAH VBC HERSTAL SD 121 0:40:55 06:01 9.97
401 6893 BERTRAND GREGOIRE VBC HERSTAL SH 190 0:40:55 06:01 9.97
402 6628 VERMEYLEN JACQUES   V2 21 0:40:56 06:01 9.97
403 6681 DECHAMBRE ROXANE   SD 122 0:40:56 06:01 9.97
404 6889 BAYRAK AYSU VBC HERSTAL SD 123 0:40:57 06:01 9.96
405 6940 FANTOLI BRUNO   SH 191 0:40:57 06:01 9.96
406 6939 LISMONDE ESTELLE   SD 124 0:40:58 06:01 9.96
407 6892 DE ZAN LÉNA VBC HERSTAL SD 125 0:40:58 06:01 9.96
408 6600 SCHOFFENIELS COLOMBE   A1 13 0:40:59 06:02 9.95
409 6244 KAMSHAT SAGINBEKOVA   SD 126 0:40:59 06:02 9.95
410 40234 NANFACK GÉRALDIN   SH 192 0:41:00 06:02 9.95
411 6317 VANUXEM JUSTINE   SD 127 0:41:00 06:02 9.95
412 6584 TREVISSON NADÈGE TEAM SOLIDARIS SD 128 0:41:01 06:02 9.95
413 6583 DEROO MALLORY   SD 129 0:41:01 06:02 9.95
414 6438 VERLINDEN ERINE HELMO SD 130 0:41:02 06:02 9.94
415 6411 VANMANSART KIMBERLEY HEL (HAUTE ECOL SD 131 0:41:03 06:02 9.94
416 6682 SON ELISE   SD 132 0:41:04 06:02 9.93
417 6496 CRÈME BENJAMIN   SH 193 0:41:04 06:02 9.93
418 6526 D'ANGELO STEVE   SH 194 0:41:09 06:03 9.91
419 6330 COCINAS GARCIA AMÉLIE HEL (HAUTE ECOL SD 133 0:41:10 06:03 9.91
420 6498 CASAGRANDE MAXENCE   SH 195 0:41:12 06:04 9.90
421 6810 PETIT JUSTINE   SD 134 0:41:12 06:04 9.90
422 6198 COSIO NICOLAS   SH 196 0:41:12 06:04 9.90
423 6178 CONSTANT LOUISA RUNNING BREAK ( SD 135 0:41:12 06:04 9.90
424 6180 CONSTANT JUSTINE ROYALE VAILLANT SD 136 0:41:12 06:04 9.90
425 6957 VO CONG TRI LILIANE   SD 137 0:41:16 06:04 9.89
426 6928 HEUSE ARTHUR   SH 197 0:41:16 06:04 9.89
427 6676 TRILLO ALISSON   SD 138 0:41:17 06:04 9.88
428 6958 LACROIX CAROLE   SD 139 0:41:18 06:04 9.88
429 6918 BOULARD LUCIE PATRO OCHAMPS & SD 140 0:41:18 06:04 9.88
430 6562 HAGELSTEIN VIRGINIE TEAM SOLIDARIS SD 141 0:41:19 06:05 9.87
431 6147 PIEDBOEUF JANELLE   SD 142 0:41:20 06:05 9.87
432 6390 VANDERSTRAETEN CLÉMENCE HELMO SD 143 0:41:20 06:05 9.87
433 6525 MERCENIER ALICE   SH 198 0:41:21 06:05 9.87
434 6953 DELLISSE CÉLINE   SD 144 0:41:25 06:05 9.85
435 6739 MISSA ALAIN MPW/HJM V3 3 0:41:25 06:05 9.85
436 6875 BALTS MAURANE   SD 145 0:41:27 06:06 9.84
437 6539 TILQUIN JULIE   SD 146 0:41:28 06:06 9.84
438 6827 PIRARD VINCENT THEUNDERDOG SH 199 0:41:28 06:06 9.84
439 6462 CAUDY THÉO   SH 200 0:41:33 06:07 9.82
440 6190 CHANTRAINE DORIAN   SH 201 0:41:35 06:07 9.81
441 6439 HEINE DIEGO HELMO SH 202 0:41:36 06:07 9.81
442 6463 BRAIPSON ALIX   SD 147 0:41:36 06:07 9.81
443 6917 GOURMET ANNELISE PATRO OCHAMPS E SD 148 0:41:37 06:07 9.80
444 40433 PAUL DYLAN TEAM SOLIDARIS SH 203 0:41:41 06:08 9.79
445 6914 GOURMET MAURINE PATRO OCHAMPS & SD 149 0:41:42 06:08 9.78
446 6571 MOTTET EMILIE   JF 12 0:41:44 06:08 9.78
447 6843 PIER MATHILDE   SD 150 0:41:45 06:08 9.77
448 6332 COCINAS GARCIA FANNY   SD 151 0:41:45 06:08 9.77
449 6540 RAINOTTE COLINE   SD 152 0:41:46 06:09 9.77
450 6954 HOYOIS AMÉLIE   SD 153 0:41:49 06:09 9.76
451 6527 MERCENIER RÉGIS   SH 204 0:41:51 06:09 9.75
452 6295 PARISI GIANNI   SH 205 0:41:52 06:09 9.74
453 6192 NEYS CATHERINE RESA SD 154 0:41:53 06:10 9.74
454 6881 DEVILLE AURELIE MITHRA PHARMACE SD 155 0:41:54 06:10 9.74
455 6296 VAESSEN QUINTIA   SD 156 0:41:54 06:10 9.74
456 6329 KOZLOWSKA NATALIA   SD 157 0:41:55 06:10 9.73
457 6916 DELSUPEXHE DEBORAH PATRO OCHAMPS E SH 206 0:41:55 06:10 9.73
458 6106 SONOO PATRICK   V2 22 0:41:56 06:10 9.73
459 6105 GRIPPI AURORE   A1 14 0:41:57 06:10 9.73
460 6371 KUBUSHISHI MÉLODIE HELMO SD 158 0:41:58 06:10 9.72
461 6360 ECHEVERRY JARAMILLO SARA HELMO SD 159 0:41:58 06:10 9.72
462 6365 EVRARD ELÉA HELMO SD 160 0:41:59 06:10 9.72
463 6777 LEEMANS JEAN-FRANÇOIS SPA V2 23 0:42:02 06:11 9.71
464 6234 BREYNE LAURE-ELISE   SD 161 0:42:03 06:11 9.70
465 6305 DEMARS ISIS   SD 162 0:42:08 06:12 9.68
466 6738 PIRMOLIN CASSANDRA   SH 207 0:42:08 06:12 9.68
467 6796 VERMEIREN MARION   JF 13 0:42:08 06:12 9.68
468 6500 HUSKIN CAROLINE   A1 15 0:42:08 06:12 9.68
469 6143 NOWAK ALEXANDRA   SD 163 0:42:08 06:12 9.68
470 6144 LEJEUNE ROBIN   SH 208 0:42:09 06:12 9.68
471 6107 GRIPPI ERIC   V1 22 0:42:09 06:12 9.68
472 6104 GRIPPI SACHA   JF 14 0:42:09 06:12 9.68
473 6239 BAUMANS CÉLINE   SD 164 0:42:09 06:12 9.68
474 6300 BERTHOLET MÉLANIE   SD 165 0:42:10 06:12 9.68
475 6983 CHARLIER ELISA   SH 209 0:42:11 06:12 9.67
476 6252 DORIAN EIDUKEVICIUS   SH 210 0:42:12 06:12 9.67
477 6391 GUYOT LÉANE HELMO SD 166 0:42:12 06:12 9.67
478 6984 THIBONNE MATHIAS   SH 211 0:42:13 06:13 9.66
479 6592 BEAUVE ANAÏS RCA SPA JF 15 0:42:15 06:13 9.66
480 6931 VOS STÉPHANE   SH 212 0:42:15 06:13 9.66
481 6932 DOR ALEXIS   V1 23 0:42:16 06:13 9.65
482 6197 LARRANGE FRÉDÉRIQUE   SD 167 0:42:21 06:14 9.63
483 6649 GENEVINI PAOLA   SD 168 0:42:21 06:14 9.63
484 6172 DERWA STEVE HELMO SH 213 0:42:24 06:14 9.62
485 6173 LORENT QUENTIN HELMO SH 214 0:42:24 06:14 9.62
486 6451 GRIGOLETTO LORA   SD 169 0:42:24 06:14 9.62
487 6453 LEJEUNE AMANDA   SD 170 0:42:24 06:14 9.62
488 6764 RAMIREZ JULIE   SD 171 0:42:26 06:14 9.61
489 6193 BILAS CLÉMENT   SH 215 0:42:27 06:15 9.61
490 40461 PECORA NATHAN   SH 216 0:42:28 06:15 9.61
491 6781 DASSY SARAH   SD 172 0:42:28 06:15 9.61
492 6942 CARABIN FLORINE   SD 173 0:42:29 06:15 9.60
493 6141 VANRAES VALENTIN ULIÈGE SH 217 0:42:30 06:15 9.60
494 6759 BARTHÉLEMY FLORINE   SD 174 0:42:31 06:15 9.60
495 6994 ROCHUS NOEMIE   A1 16 0:42:31 06:15 9.60
496 6159 SAVELKOUL DENIS   SH 218 0:42:32 06:15 9.59
497 6857 ANTONIAZZI LEANA   SD 175 0:42:32 06:15 9.59
498 6778 GOFFIN BÉNÉDICTE   SD 176 0:42:33 06:15 9.59
499 6302 FRATANTONIO EMILIE   SD 177 0:42:34 06:16 9.58
500 6304 SIMENS ANDREA   SH 219 0:42:35 06:16 9.58
501 6232 MAERTEN EMMANUELLA   SD 178 0:42:35 06:16 9.58
502 6818 PIERRE LEMAIRE   SH 220 0:42:35 06:16 9.58
503 40459 ELIAN RUSSO   JH 19 0:42:37 06:16 9.57
504 6856 HALLEUX AMÉLIE   SD 179 0:42:38 06:16 9.57
505 6122 POIROT ANTOINE   JH 20 0:42:38 06:16 9.57
506 6968 LABOLLE HENRI HEL (HAUTE ECOL SH 221 0:42:43 06:17 9.55
507 6591 BEAUVE AURÉLIANE HELMO SD 180 0:42:43 06:17 9.55
508 6751 DELMOTTE LAURA   SH 222 0:42:43 06:17 9.55
509 6750 VEALE EMILY   SD 181 0:42:43 06:17 9.55
510 6853 GUILLAUME CAMILLE   SD 182 0:42:44 06:17 9.55
511 6911 ROMANO STÉPHANIE   A1 17 0:42:45 06:17 9.54
512 6413 LAMBERT VILLÉ MARTIN HELMO SH 223 0:42:48 06:18 9.53
513 6765 EL ALLAF CAROLINE   SD 183 0:42:49 06:18 9.53
514 6280 RAZE FÉLICIEN   SH 224 0:42:49 06:18 9.53
515 6434 WYSOTA LOUISON   SD 184 0:42:50 06:18 9.52
516 6437 WYSOTA ALIX   SD 185 0:42:50 06:18 9.52
517 6185 MARICHAL CAROLINE   SD 186 0:42:56 06:19 9.50
518 40231 LUBRANO AURORE   A1 18 0:42:57 06:19 9.50
519 40230 LYDAKIS DELPHINE   A1 19 0:42:57 06:19 9.50
520 6556 LOMBARDI MARIE   SD 187 0:42:58 06:19 9.50
521 6447 COEURNELLE SONIA RESA A2 6 0:43:00 06:19 9.49
522 6908 PALMANS STÉPHANIE   A1 20 0:43:02 06:20 9.48
523 6377 GILLARD FABIEN HELMO SH 225 0:43:03 06:20 9.48
524 6347 BRICTEUX CLÉMY HELMO SD 188 0:43:06 06:20 9.47
525 6499 BOUCHAT JULIE   SD 189 0:43:06 06:20 9.47
526 6348 VAN PROEMEREN LAURA HELMO SD 190 0:43:07 06:20 9.46
527 6864 SOTTIAUX MARION HELMO SD 191 0:43:07 06:20 9.46
528 6262 VIAENE ESTELLE   SD 192 0:43:07 06:20 9.46
529 6860 LEDOUPPE QUENTIN HELMO SH 226 0:43:08 06:21 9.46
530 6855 LAMALLE MAXIME   SH 227 0:43:08 06:21 9.46
531 6677 HALBART ELISE   SD 193 0:43:10 06:21 9.45
532 6865 CORBESIER CORINE   SD 194 0:43:11 06:21 9.45
533 6385 JANSSENS CAROLE HELMO SD 195 0:43:11 06:21 9.45
534 6866 ISTAZ MARINE   SD 196 0:43:12 06:21 9.44
535 6867 BERNARD CLARISSE   SD 197 0:43:13 06:21 9.44
536 6256 COLLARD OLIVIER   SH 228 0:43:14 06:21 9.44
537 6253 BELKHODJA SYRINE   SD 198 0:43:15 06:22 9.43
538 6255 ESPINOSA CHLOÉ   SD 199 0:43:15 06:22 9.43
539 6254 BERTIMES ESTELLE   SD 200 0:43:16 06:22 9.43
540 6137 DESTEXHE REGINE   A2 7 0:43:16 06:22 9.43
541 6363 BARTHOLOME ANDRÉA HELMO SD 201 0:43:17 06:22 9.43
542 6606 HENRY VIRGINIE VISÉ LES DRÔLES A1 21 0:43:18 06:22 9.42
543 6136 GRAFF SOPHIE JCPMF A1 22 0:43:19 06:22 9.42
544 6132 MAITRY ROBERT LESTLE INDIANER SH 229 0:43:19 06:22 9.42
545 6607 MIGNON KATHLEEN VISE LES DRÔLES A1 23 0:43:19 06:22 9.42
546 6135 JEROME DIMITRI INDIENS V1 24 0:43:19 06:22 9.42
547 6133 MAY PAUL JACQUES   SH 230 0:43:20 06:22 9.41
548 6131 SCHILTZ PHILIPPE LESTLÉ INDIANER SH 231 0:43:21 06:23 9.41
549 6205 JAQUET OCÉANE   SD 202 0:43:21 06:23 9.41
550 6264 DELBROUCK AURÉLIE   SD 203 0:43:22 06:23 9.41
551 6452 DUPONT DAVID   SH 232 0:43:22 06:23 9.41
552 6450 STURBOIS ELINE   SD 204 0:43:23 06:23 9.40
553 6494 BOUFFLETTE JONATHAN   SH 233 0:43:24 06:23 9.40
554 6409 SIEBERATH CELIA HELMO SD 205 0:43:25 06:23 9.40
555 40432 SCHLIT LIONEL TEAM SOLIDARIS V1 25 0:43:26 06:23 9.39
556 6351 BOCAR ROXANE   SD 206 0:43:26 06:23 9.39
557 6511 PUTZEYS DOMINIQUE RESA V2 24 0:43:26 06:23 9.39
558 6350 MOONEN OLIVIA   SD 207 0:43:26 06:23 9.39
559 6493 DE ROECK URMILA   SD 208 0:43:27 06:23 9.39
560 6233 ROULEZ AMÉLIE   SD 209 0:43:27 06:23 9.39
561 40227 MORREALE ADRIEN TEAM SOLIDARIS SH 234 0:43:27 06:23 9.39
562 6337 LAFONTAINE ALIXIA   SH 235 0:43:28 06:24 9.39
563 6338 BONHOMME CAROLE   SD 210 0:43:30 06:24 9.38
564 6388 EL MOUBACHAR SAMYA HELMO SD 211 0:43:32 06:24 9.37
565 6384 SCHYNS CLÉLIA HELMO SD 212 0:43:32 06:24 9.37
566 6593 ELOUDRHIRI RAYANE   SH 236 0:43:33 06:24 9.37
567 6383 KÜPPER MARTINE HELMO SD 213 0:43:33 06:24 9.37
568 6608 HENRY CATHERINE   A1 24 0:43:36 06:25 9.36
569 6618 TASSEROUL LUDIVINE   SD 214 0:43:37 06:25 9.35
570 6142 BOVEROUX LAURIE ULIÈGE SD 215 0:43:37 06:25 9.35
571 6486 COCINA MARION   SD 216 0:43:40 06:25 9.34
572 6441 BERNARD NICOLAS HEL (HAUTE ECOL SH 237 0:43:40 06:25 9.34
573 6484 DEVILLE ANAÏS MPWHJM SD 217 0:43:41 06:25 9.34
574 6487 SCHAUS JULIE JCPMF ROCOURT SD 218 0:43:41 06:25 9.34
575 6532 FAGNOUL CEDRIC   V1 26 0:43:43 06:26 9.33
576 6648 HERBILLON LOÏC   SH 238 0:43:46 06:26 9.32
577 6973 CUVELIER CATHERINE   A1 25 0:43:48 06:26 9.31
578 6961 DESSI JULIA   SD 219 0:43:48 06:26 9.31
579 6604 EMO SANDRA   A1 26 0:43:49 06:27 9.31
580 6502 KELLENS OLIVIER RESA V2 25 0:43:49 06:27 9.31
581 6399 CASIMIRO SANDRINE   SD 220 0:43:50 06:27 9.31
582 6803 MARTINELLI SOPHIE   SD 221 0:43:55 06:28 9.29
583 6126 NICOLAY GILLES COACHED_BY_PIET JH 21 0:43:55 06:28 9.29
584 6446 GRIGNARD FRÉDÉRIC RESA V1 27 0:43:55 06:28 9.29
585 6944 CHABEAU AURORE   SD 222 0:43:57 06:28 9.28
586 6398 SEBASTIANI CAMILLE   SD 223 0:43:58 06:28 9.28
587 6945 SANTORO LUCA   SH 239 0:43:58 06:28 9.28
588 6169 GLADALA AURELIE   SD 224 0:44:03 06:29 9.26
589 6168 WINTGENS JULIEN   SH 240 0:44:03 06:29 9.26
590 6108 PETIT VIRGINIE   SD 225 0:44:06 06:29 9.25
591 6472 THEUNENS LUCAS RESA JH 22 0:44:06 06:29 9.25
592 6825 IEVEN CHRISTOPHE THEUNDERDOG SH 241 0:44:07 06:29 9.25
593 6473 NETO LOURENCO JESSICA RESA SD 226 0:44:08 06:29 9.24
594 6548 VAN-AKELYEN DYLAN   SH 242 0:44:08 06:29 9.24
595 6553 KOEYMANS ALICIA   SD 227 0:44:09 06:30 9.24
596 6561 FALLA MURIEL   A2 8 0:44:10 06:30 9.24
597 6671 HRISTOVA TÉRÉZA VILLE DE LIÈGE SD 228 0:44:10 06:30 9.24
598 6565 GURNY ISABELLE   A1 27 0:44:11 06:30 9.23
599 6849 ROMBOUTS AUDE   JF 16 0:44:14 06:30 9.22
600 6208 THEUNISSEN CÉLINE VILLE DE LIÈGE SD 229 0:44:15 06:30 9.22
601 6212 ARETZ MICHEL VILLE DE LIÈGE V1 28 0:44:15 06:30 9.22
602 6357 INNOCENT CÉLINE   SD 230 0:44:15 06:30 9.22
603 6342 WATHELET ANNELYSE   SH 243 0:44:15 06:30 9.22
604 6665 CAPELLE VICTORIA VILLE DE LIÈGE SD 231 0:44:17 06:31 9.21
605 6922 DERMIEN CHLOÉ   SD 232 0:44:22 06:31 9.20
606 6969 RAMAEKERS JUSTINE   SD 233 0:44:24 06:32 9.19
607 40233 STEVINS CEDRIC   V1 29 0:44:27 06:32 9.18
608 6808 ROUX ADELINE   SD 234 0:44:30 06:33 9.17
609 6497 GOLAIRE ADRIEN   SH 244 0:44:34 06:33 9.15
610 6352 ETIENNE MATHILDE HELMO SD 235 0:44:34 06:33 9.15
611 6730 HENRY JENNIFER VILLE DE LIÈGE A2 9 0:44:34 06:33 9.15
612 6972 GASPAR VALENTINE   SD 236 0:44:34 06:33 9.15
613 6311 FRANSSEN JULIETTE   SD 237 0:44:36 06:34 9.15
614 6307 PAILLOT LAETITIA   SD 238 0:44:36 06:34 9.15
615 6223 BRAUN PETRA   A2 10 0:44:42 06:34 9.13
616 6919 SCHEEN JUSTIN   SH 245 0:44:42 06:34 9.13
617 6970 DEBY QUENTIN   SH 246 0:44:42 06:34 9.13
618 6138 NOEL MANON   SD 239 0:44:45 06:35 9.12
619 6655 SCHOUFS LÉOPOLDINE   SD 240 0:44:45 06:35 9.12
620 6654 LAMY MARGOT   SD 241 0:44:46 06:35 9.11
621 6139 RICCI FABIO   V1 30 0:44:47 06:35 9.11
622 6570 BOURNONVILLE VALÉRIE LES BOULES À BE A2 11 0:44:47 06:35 9.11
623 6793 RESPENTINO LAURA   SD 242 0:44:48 06:35 9.11
624 6479 BARNABA BRUNO RUNNING SOUMAGN V2 26 0:44:49 06:35 9.10
625 6569 KURTI ANTOAN LES BOULES À BE SH 247 0:44:49 06:35 9.10
626 6442 VINCENT COLINE HEL (HAUTE ECOL SD 243 0:44:50 06:36 9.10
627 6722 BICHET EUGÉNIE   SD 244 0:44:55 06:36 9.08
628 6725 RELOUZAT MARVIN   SH 248 0:44:55 06:36 9.08
629 6871 LECARTE FLORENCE RESA SD 245 0:44:57 06:37 9.08
630 6326 BERSANELLI LISA   SD 246 0:44:58 06:37 9.07
631 6327 WALTREGNY JULIETTE   SD 247 0:44:58 06:37 9.07
632 6967 LEGROS BÉRÉNICE   SD 248 0:44:59 06:37 9.07
633 6615 HANSSEN JULIE   SD 249 0:45:00 06:37 9.07
634 6231 TALMASSE EMMANUELLE   SD 250 0:45:05 06:38 9.05
635 6199 LESECQUE MANON   SD 251 0:45:06 06:38 9.05
636 6230 DANSE MARINE   SD 252 0:45:07 06:38 9.04
637 6145 PINARD LILOU   JF 17 0:45:10 06:39 9.03
638 6170 MARCZEWSKI LOU   JF 18 0:45:10 06:39 9.03
639 6543 MARIEN KATHLEEN   A2 12 0:45:11 06:39 9.03
640 6171 GÉNEREUX CATHERINE ZATAC LIÈGE A1 28 0:45:12 06:39 9.03
641 6577 SLEGERS MARION   SD 253 0:45:13 06:39 9.02
642 6542 PIRON LAURENCE   A1 29 0:45:13 06:39 9.02
643 6221 MERCY PAULINE   SD 254 0:45:19 06:40 9.00
644 6146 SCHILS ELÉONORE   A1 30 0:45:20 06:40 9.00
645 6530 BAUDRU ANNE-SOPHIE   SD 255 0:45:22 06:40 8.99
646 40463 VAN LEEUWEN PAULINE   SD 256 0:45:23 06:40 8.99
647 6124 MOUTSCHEN LUCIE   SD 257 0:45:23 06:40 8.99
648 6816 THOMAS ELISE   SD 258 0:45:23 06:40 8.99
649 6123 DEVILLE CHLOÉ   SD 259 0:45:25 06:41 8.98
650 6194 BILAS ELISE   SD 260 0:45:26 06:41 8.98
651 6528 MAIORI CYNTHIA   V1 31 0:45:34 06:42 8.95
652 6529 BAECKE ANNE   A2 13 0:45:36 06:42 8.95
653 6408 DE NADAI JULIE HELMO SD 261 0:45:38 06:43 8.94
654 40425 DELLA FAILLE ISAURE   SD 262 0:45:41 06:43 8.93
655 6941 JETTEUR OPHÉLIA   SD 263 0:45:42 06:43 8.93
656 40225 GUILLISSEN MARIE TEAM SOLIDARIS SD 264 0:45:44 06:44 8.92
657 6459 GIGLIONE PEREIRA ANGELINA   SD 265 0:45:44 06:44 8.92
658 6181 DILIBERTO FRANÇOIS RESA SH 249 0:45:45 06:44 8.92
659 6182 QUEVEDO CHARLOTTE RESA SH 250 0:45:47 06:44 8.91
660 6639 DEFAWE MICHEL PASDENOM V2 27 0:45:48 06:44 8.91
661 6460 GIGLIONE PEREIRA GIGLIA   SD 266 0:45:49 06:44 8.90
662 6461 DENIS MARGAUX   SD 267 0:45:49 06:44 8.90
663 6966 GHOLAP VINAYAK   SH 251 0:45:51 06:45 8.90
664 6103 WESTENBOHM HANNAH   SD 268 0:45:55 06:45 8.89
665 6102 LELOTTE LUCIE   SD 269 0:45:55 06:45 8.89
666 6513 VAN DEN BRULE PIERRICK   SH 252 0:45:57 06:45 8.88
667 6512 ERKENNE MÉGANE   SD 270 0:45:57 06:45 8.88
668 6897 RANDAZZO GIULIA MITHRA PHARMACE SD 271 0:45:58 06:46 8.88
669 6880 GOTTARDI JULIE MITHRA PHARMACE SD 272 0:45:58 06:46 8.88
670 6309 SABATINI SARAH   SD 273 0:45:58 06:46 8.88
671 6882 MASOCH MARIE MITHRA PHARMACE SD 274 0:45:59 06:46 8.87
672 6386 JACQUET CLÉMENTINE HELMO SD 275 0:45:59 06:46 8.87
673 6275 LANGDON HANNAH   SD 276 0:45:59 06:46 8.87
674 6807 WILKIN MARTINE   A2 14 0:45:59 06:46 8.87
675 6809 DUMONT ESTELLE   SD 277 0:46:00 06:46 8.87
676 6294 MATHIEU SANDRINE   SD 278 0:46:07 06:47 8.85
677 6690 MOSSIAT MÉLANIE VILLE DE LIÈGE SD 279 0:46:08 06:47 8.84
678 6689 DOYEN NICOLA VILLE DE LIÈGE SH 253 0:46:08 06:47 8.84
679 6872 ZOLANDONGA HONORÉ JCPMF ROCOURT V2 28 0:46:09 06:47 8.84
680 6830 KAROUI SAMI   SH 254 0:46:12 06:48 8.83
681 6510 HOANG MINH DUC RESA SH 255 0:46:14 06:48 8.82
682 6729 SIMONIS JOELLE RENDEZ-VOUS RUN A2 15 0:46:15 06:48 8.82
683 6495 GROSJEAN FRANÇOIS   SH 256 0:46:15 06:48 8.82
684 6653 DONY TANAÏS   SD 280 0:46:18 06:49 8.81
685 6743 BERTHENET AUXANE   SD 281 0:46:19 06:49 8.81
686 6475 WEYER MARTINE   A3 2 0:46:23 06:49 8.80
687 6846 RADERMECKER RÉGIS   V1 32 0:46:23 06:49 8.80
688 6850 MARQUET FRANÇOISE   A1 31 0:46:24 06:49 8.79
689 6761 LASSENCE NADIA   A1 32 0:46:26 06:50 8.79
690 6339 NYSSEN JULIEN   SH 257 0:46:29 06:50 8.78
691 6471 PHILIPPE MARTINE   A2 16 0:46:29 06:50 8.78
692 6356 GASPARD JEAN-PIERRE   V4 1 0:46:29 06:50 8.78
693 6340 BEBRONNE CAROLINE   SD 282 0:46:30 06:50 8.77
694 6756 PARRINELLO TIZIANA   SD 283 0:46:35 06:51 8.76
695 6806 HOGGE LOUISE   SD 284 0:46:36 06:51 8.75
696 6458 DEFOUR LAURA HEL (HAUTE ECOL SD 285 0:46:39 06:52 8.75
697 6457 NIKAS EFTHIMIOS HEL (HAUTE ECOL SH 258 0:46:39 06:52 8.75
698 6766 BECHET AUDREY   SD 286 0:46:42 06:52 8.74
699 6991 ISABELLE PETIT   SD 287 0:46:43 06:52 8.73
700 6715 STAS ELISA VILLE DE LIÈGE JF 19 0:46:46 06:53 8.72
701 6952 COLSON JUSTINE   SD 288 0:46:47 06:53 8.72
702 6261 TSIMACIDIS MARIANA   SD 289 0:46:53 06:54 8.70
703 6166 NICAISE LUNA   SD 290 0:46:56 06:54 8.69
704 6167 FAUCHET BRUNO HONY SH 259 0:46:56 06:54 8.69
705 6165 DARDENNE ROMANE HONY SD 291 0:46:56 06:54 8.69
706 40232 PHILIPPIN FRÉDÉRIQUE   V2 29 0:47:00 06:55 8.68
707 6795 VERMEIREN EMMA   JF 20 0:47:00 06:55 8.68
708 6454 SERVAIS LOUISE COUCOU SD 292 0:47:01 06:55 8.68
709 6241 SCHUMACHER NATHALIE   SD 293 0:47:01 06:55 8.68
710 6240 FOMBELLIDA-LOPEZ CÉLINE   SD 294 0:47:01 06:55 8.68
711 6380 CALOMME SANDRINE HEL (HAUTE ECOL A1 33 0:47:03 06:55 8.67
712 6948 LECOCQ CÉCILE   SD 295 0:47:05 06:55 8.66
713 6950 GARAVELLO DAPHNÉ   SD 296 0:47:06 06:56 8.66
714 6947 BEAUDUIN ELS   A1 34 0:47:06 06:56 8.66
715 7000 CAMPOLINI GÉRALDINE   A1 35 0:47:06 06:56 8.66
716 6572 KABEYA LÉON   V2 30 0:47:07 06:56 8.66
717 6367 DARCHAMBEAU AXELLE HELMO SD 297 0:47:07 06:56 8.66
718 6736 ENGEL CLARA   SD 298 0:47:11 06:56 8.65
719 6735 ANTEN CHARLOTTE   SD 299 0:47:14 06:57 8.64
720 6237 DAMAS KIRA-KIBIBE   SH 260 0:47:16 06:57 8.63
721 6355 EVERAERTS CAMILLE HELMO SD 300 0:47:17 06:57 8.63
722 6204 BERCKMANS CÉLIA   SD 301 0:47:18 06:57 8.63
723 6955 COULON CHRISTELLE   A2 17 0:47:19 06:58 8.62
724 6863 VANBEVER CORALIE HELMO SD 302 0:47:19 06:58 8.62
725 6228 LAVROVA ELIZAVETA   SD 303 0:47:22 06:58 8.61
726 6906 PALMANS CAROLINE   SD 304 0:47:23 06:58 8.61
727 6443 FROIDBISE JEAN-LUC FOULÉES DU PLAI V3 4 0:47:27 06:59 8.60
728 6203 BAERT FIONA RCAE AVIRON SD 305 0:47:28 06:59 8.60
729 6444 FROIDBISE CLOÉE   SD 306 0:47:28 06:59 8.60
730 6291 BOTTE MARIE   SD 307 0:47:28 06:59 8.60
731 6445 BOULANGER YVES-GAUTIER   SH 261 0:47:29 06:59 8.59
732 6404 DOPPÉE VIRGINIE   SD 308 0:47:30 06:59 8.59
733 6977 GENSON ELISABETH   A1 36 0:47:37 07:00 8.57
734 6976 BAUMCHEN PATRICIA   A1 37 0:47:39 07:00 8.56
735 6299 GRÉGOIRE SARAH   SD 309 0:47:39 07:00 8.56
736 6298 VERCRUYSSE MATHILDE   SD 310 0:47:40 07:01 8.56
737 6449 DEMONTY ROMANE   SD 311 0:47:49 07:02 8.53
738 6448 HANSENNE EVA   SD 312 0:47:50 07:02 8.53
739 6272 DESAIVE OANELLE   SD 313 0:47:51 07:02 8.53
740 6674 REIP SOPHIE TEAM SOLIDARIS SD 314 0:47:52 07:02 8.52
741 6673 REIP MARIE-FRANCE   SD 315 0:47:53 07:03 8.52
742 6259 ANTONELLI LALLIE   SD 316 0:47:53 07:03 8.52
743 6990 CLESSENS AUDREY   SD 317 0:47:56 07:03 8.51
744 6980 JULÉMONT CLARA   SD 318 0:48:00 07:04 8.50
745 6222 SCHWAIGER LUCIE   SD 319 0:48:00 07:04 8.50
746 6624 DE BATTICE CAROLINE   SD 320 0:48:01 07:04 8.50
747 6372 LEMAIRE CÉLIA HELMO SD 321 0:48:09 07:05 8.47
748 6236 CENNÉ LOUISE   SD 322 0:48:12 07:05 8.46
749 6524 VERBIST GEORGETTE   A3 3 0:48:12 07:05 8.46
750 6974 DUCHATEAU DOMINIQUE   A1 38 0:48:13 07:05 8.46
751 6235 CAVILLOT LISA   SD 323 0:48:13 07:05 8.46
752 6401 RAJABI HANIEH   SD 324 0:48:15 07:06 8.46
753 6874 VANDENBRIELE ILSE JCPMF ROCOURT A1 39 0:48:17 07:06 8.45
754 6227 SOMERS CONSTANCE   SD 325 0:48:20 07:06 8.44
755 6456 DOUCET CAMILLE   SD 326 0:48:24 07:07 8.43
756 6636 DELSEMME JUSTINE TEAM DESCO SD 327 0:48:25 07:07 8.43
757 6634 VERVOORT SOPHIE TEAM DESCO SD 328 0:48:26 07:07 8.42
758 6425 MASSIN EMILIE RESA SD 329 0:48:26 07:07 8.42
759 6635 FARGES MARJOLENE TEAM DESCO SD 330 0:48:26 07:07 8.42
760 6427 LEPIEMME DOROTHÉE RESA SD 331 0:48:26 07:07 8.42
761 6424 DEROCHETTE ALEXANDRA RESA SD 332 0:48:26 07:07 8.42
762 6549 MOLL JEHANNE   SD 333 0:48:28 07:08 8.42
763 6550 BASTIN NICOLE   A2 18 0:48:28 07:08 8.42
764 6921 DERMIEN STÉPHANE   V2 31 0:48:35 07:09 8.40
765 6915 MARTIN JULIETTE PATRO OCHAMPS & SD 334 0:48:38 07:09 8.39
766 6913 FRÉSING DELPHINE PATRO OCHAMPS & SD 335 0:48:38 07:09 8.39
767 6912 BRÉVERY MANON PATRO OCHAMPS E SD 336 0:48:39 07:09 8.39
768 6828 IEVEN LIESBETH THEUNDERDOG SD 337 0:48:43 07:10 8.37
769 6826 MEEUS ELINE THEUNDERDOG SD 338 0:48:44 07:10 8.37
770 6920 STENIER MAXENCE   SH 262 0:48:44 07:10 8.37
771 6215 THEYS FABIEN   V1 33 0:48:46 07:10 8.37
772 6811 GUARDAVASCIO ALESSIA   SD 339 0:48:48 07:11 8.36
773 6216 MERCIER CHRISTEL   A1 40 0:48:48 07:11 8.36
774 6314 LUYCKX MARGAUX   SD 340 0:48:54 07:11 8.34
775 6315 RENARD MICHAËL   SH 263 0:48:55 07:12 8.34
776 6186 MUNYANSANGA ARMEL   SH 264 0:48:56 07:12 8.34
777 6184 HALLEUX MARIE   SD 341 0:48:57 07:12 8.33
778 6316 LOLY MARIE   SD 342 0:48:57 07:12 8.33
779 6824 LOUWET MARGAUX   SD 343 0:49:02 07:13 8.32
780 6426 FLANDRIN PAULINE   SD 344 0:49:12 07:14 8.29
781 6428 CLOECKAERT ALYSSA   SD 345 0:49:14 07:14 8.29
782 6248 CHARLIER ALEXANDRA   SD 346 0:49:19 07:15 8.27
783 6627 GOSSE VALÉRIE   A1 41 0:49:19 07:15 8.27
784 6625 FRÉNAY LAURE   SD 347 0:49:22 07:16 8.26
785 6489 MABOGE COLINE   SD 348 0:49:25 07:16 8.26
786 6490 LEMMENS S205773   SH 265 0:49:29 07:17 8.24
787 6760 BARTHÉLEMY CHLOÉ   SD 349 0:49:39 07:18 8.22
788 40226 DELEVAL KÉVIN TEAM SOLIDARIS SH 266 0:49:40 07:18 8.21
789 6121 LEBICHOT JOHAN JCPMF ROCOURT V1 34 0:49:41 07:18 8.21
790 40430 DANIELS MAUREEN TEAM SOLIDARIS SD 350 0:49:41 07:18 8.21
791 6120 FILLÉE MÉLANIE JCPMF ROCOURT A1 42 0:49:44 07:19 8.20
792 6290 AWOUTERS PIERRE   SH 267 0:49:44 07:19 8.20
793 6119 LAVAL ANNE-LISE JCPMF ROCOURT A1 43 0:49:45 07:19 8.20
794 6589 BEAUVE LUCIE   SD 351 0:49:45 07:19 8.20
795 6590 LIVET MAUDE   SD 352 0:49:46 07:19 8.20
796 6374 GILSON ARMELLE HELMO SD 353 0:49:49 07:20 8.19
797 6225 HAURET CLÉMENTINE   SD 354 0:49:50 07:20 8.19
798 6226 DEMOITIÉ LÉA   SH 268 0:49:51 07:20 8.18
799 6879 GÉRARD ANAÏS   SD 355 0:49:54 07:20 8.18
800 6876 DELCHAMBRE CLÉMENCE   SD 356 0:49:54 07:20 8.18
801 6395 BROUWIR SASHA HELMO SD 357 0:49:56 07:21 8.17
802 6644 MERKEN LAURENCE   SD 358 0:49:58 07:21 8.16
803 6246 BAUMGARTEN JULIA   SD 359 0:50:03 07:22 8.15
804 6125 LOUIS JÉRÔME   V1 35 0:50:03 07:22 8.15
805 6247 BOUWERS NANDA   SD 360 0:50:10 07:23 8.13
806 6455 KIMPLAIRE FREDERIC   V1 36 0:50:13 07:23 8.12
807 6651 GERARD CHRISTELLE VILLE DE LIÈGE SD 361 0:50:17 07:24 8.11
808 6285 HERENS ELODIE   SD 362 0:50:19 07:24 8.11
809 6220 MODICA LAETICIA VILLE DE LIÈGE A1 44 0:50:19 07:24 8.11
810 6835 NIESSEN LOIC   SH 269 0:50:22 07:24 8.10
811 6762 LOUPPE JOHAN   SH 270 0:50:22 07:24 8.10
812 6364 CLARY ERNEST HELMO SD 363 0:50:23 07:25 8.10
813 6701 MENDOLA LAURANE   SD 364 0:50:25 07:25 8.09
814 6702 MENDOLA JUSTINE   SH 271 0:50:25 07:25 8.09
815 6834 HUYNH GAEL   SH 272 0:50:25 07:25 8.09
816 6837 NIESSEN GUILLAUME   SH 273 0:50:25 07:25 8.09
817 6836 LOUKIA NAOUAL   SD 365 0:50:26 07:25 8.09
818 6393 SCHREIBER CLOÉ HELMO SD 366 0:50:32 07:26 8.07
819 6633 RUGGIERO LOREDANA   SD 367 0:50:33 07:26 8.07
820 6418 DE RE EMMANUELLE   A1 45 0:50:45 07:28 8.04
821 6573 BOLLE LAURENCE   A1 46 0:50:48 07:28 8.03
822 6538 GENDARME NINE   SD 368 0:50:49 07:28 8.03
823 6575 DUYSEN STÉPHANIE   A1 47 0:50:49 07:28 8.03
824 6217 DEMETER AGOTA   SD 369 0:50:52 07:29 8.02
825 6116 GRANATA MARA JCPMF ROCOURT SD 370 0:50:52 07:29 8.02
826 6801 REYNAERTS PAULINE   SD 371 0:50:52 07:29 8.02
827 6115 FERRANTE ALEXIA JCPMF ROCOURT SD 372 0:50:53 07:29 8.02
828 6734 AVIMADJESSI RODRIGUE RO SH 274 0:50:59 07:30 8.00
829 6580 ROBERT EMMA   SD 373 0:51:03 07:30 7.99
830 6579 JACQUEMIN ALEXANDRE   SH 275 0:51:04 07:31 7.99
831 6293 FERY LOUISE   SD 374 0:51:10 07:31 7.97
832 6802 STRAUVEN CAMILLE   SD 375 0:51:24 07:34 7.94
833 6242 MORENO NUNO LÉA   SD 376 0:51:29 07:34 7.92
834 6243 DEROOZ THÉO   SH 276 0:51:29 07:34 7.92
835 6646 GISHER SARAH   A1 48 0:51:30 07:34 7.92
836 6645 BOSAK BÉATRICE   A1 49 0:51:33 07:35 7.91
837 6717 WOLFCARIUS SATINE VILLE DE LIÈGE JF 21 0:51:34 07:35 7.91
838 6697 WEISE ESTHER   JF 22 0:51:34 07:35 7.91
839 6127 NICOLAY GEOFFREY COACHED_BY_PIET V1 37 0:51:52 07:38 7.87
840 6783 HODY NAOMY LIEGE MOSAN SYN JF 23 0:51:58 07:39 7.85
841 6782 MAZUREK ORANE MOSAN SYNCHRO JF 24 0:51:59 07:39 7.85
842 6440 MEYERS VÉRONIQUE JIA A1 50 0:51:59 07:39 7.85
843 6996 PONCIN AURIANE   SD 377 0:52:01 07:39 7.84
844 6419 HAVELANGE VIRGINIE   SD 378 0:52:02 07:39 7.84
845 6693 STAS JEAN-FRANÇOIS VILLE DE LIÈGE V2 32 0:52:06 07:40 7.83
846 6597 GLAUDE VALÉRIE TEAM SOLIDARIS A1 51 0:52:07 07:40 7.83
847 6745 ES-SAFI LATIFA VILLE DE LIÈGE A2 19 0:52:08 07:40 7.83
848 6710 LEFRANCQ STÉPHANE   SH 277 0:52:08 07:40 7.83
849 6709 GUSTIN VICKY   SD 379 0:52:08 07:40 7.83
850 6630 MULLENS PAULINE   SD 380 0:52:18 07:41 7.80
851 6632 DELSAUX JULIE   SD 381 0:52:21 07:42 7.79
852 6631 DELSAUX GILLES   SH 278 0:52:39 07:45 7.75
853 6694 DOLCIMASCOLO NADIA   SD 382 0:52:46 07:46 7.73
854 6692 BERRTRAND MARINE   SD 383 0:52:48 07:46 7.73
855 6698 TUDINO ANDREA   SD 384 0:52:48 07:46 7.73
856 6620 KAESEMANS MARIE   SD 385 0:52:49 07:46 7.72
857 6417 DELANGE MÉLISSA HELMO SD 386 0:52:55 07:47 7.71
858 6416 VAN WYNSBERGHE JUSTIN HELMO SH 279 0:53:00 07:48 7.70
859 6707 VIGNONI ROMANE VILLE DE LIÈGE SD 387 0:53:02 07:48 7.69
860 6708 RHIMI YASMINE VILLE DE LIÈGE SD 388 0:53:03 07:48 7.69
861 6410 GEORGES MADISSON HEL (HAUTE ECOL SD 389 0:53:06 07:49 7.68
862 6211 EPUREANU LARA VILLE DE LIÈGE JF 25 0:53:12 07:49 7.67
863 6274 HERENS SOPHIE   SD 390 0:53:24 07:51 7.64
864 6534 LÉVO SANDRINE   A1 52 0:53:36 07:53 7.61
865 6533 DELCROIC ANNE-SOPHIE   A1 53 0:53:37 07:53 7.61
866 6905 GOUJON JUSTINE   SD 391 0:53:37 07:53 7.61
867 6902 DUPORTAL DAMIEN   SH 280 0:53:38 07:53 7.61
868 6346 CIANCIO CLARA   SD 392 0:53:42 07:54 7.60
869 6993 SIDANI NEAMAT   SD 393 0:53:50 07:55 7.58
870 6468 DUPIRE SYLVIE RESA SD 394 0:54:02 07:57 7.55
871 6464 WILLÈME ALINE   SD 395 0:54:05 07:57 7.54
872 6568 COUNSON SANDRINE HELMO A1 54 0:54:40 08:02 7.46
873 6605 CALIXTE MAXENCE   SH 281 0:55:01 08:05 7.42
874 6603 RADICCHI SARAH   SD 396 0:55:01 08:05 7.42
875 6601 MORATTINI ALYSSA   SD 397 0:55:01 08:05 7.42
876 6602 VAN PUYVELDE CÉLINE   SD 398 0:55:02 08:06 7.41
877 6854 SIFFERT MICHEL BERNARD JCPMF V3 5 0:55:03 08:06 7.41
878 6209 MORREALE UGO VILLE DE LIÈGE JH 23 0:55:04 08:06 7.41
879 6210 ROMASTIN LAN VILLE DE LIÈGE JF 26 0:55:04 08:06 7.41
880 6898 HEPTIA AUDE   SH 282 0:55:16 08:08 7.38
881 6238 VANDENPUT CLAIRE   SD 399 0:55:27 08:09 7.36
882 6666 PHILLIPE MARION VILLE DE LIÈGE SD 400 0:55:30 08:10 7.35
883 6509 FALKENBERG NOÉMI RESA SD 401 0:55:42 08:11 7.32
884 6161 VREVEN WILLIAM   SH 283 0:55:45 08:12 7.32
885 6587 AMBROSIO CARLA   SD 402 0:55:49 08:13 7.31
886 6586 LOUIS MARYTHIE   SD 403 0:55:50 08:13 7.31
887 6791 FIT SÉBASTIEN   SH 284 0:56:11 08:16 7.26
888 6154 DE LAET LUCAS FOOD TALENTS JH 24 0:56:11 08:16 7.26
889 6156 DE LAET ARNAUD FOOD TALENTS SH 285 0:56:11 08:16 7.26
890 6160 HUSQUINET THOMAS   SH 286 0:56:12 08:16 7.26
891 6833 UMAY MITHAT   SH 287 0:56:20 08:17 7.24
892 6832 UMAY SEMIH   V2 33 0:56:21 08:17 7.24
893 6536 FANCHON GILTAY   SD 404 0:56:27 08:18 7.23
894 6985 DENGIS LUCIE   SD 405 0:56:33 08:19 7.21
895 6155 DE LAET ROLAND FOOD TALENTS V2 34 0:56:34 08:19 7.21
896 6986 BLANCHART MARGAUX   SD 406 0:56:40 08:20 7.20
897 6517 GRAINDORGE MAGALI   SD 407 0:56:47 08:21 7.18
898 6118 KEYSER ALYCIA JCPMF ROCOURT SD 408 0:57:33 08:28 7.09
899 40124 THEISS PHILIPPE TEAM SOLIDARIS SH 288 0:57:47 08:30 7.06
900 40130 LERHO FLORIANE TEAM SOLIDARIS SD 409 0:57:48 08:30 7.06
901 6117 MARNEFFE MARYLÈNE JCPMF ROCOURT A2 20 0:58:03 08:32 7.03
902 6488 WATHELET BERNADETTE   A3 4 0:58:13 08:34 7.01
903 6130 GAIGNAGE ISABELLE   A2 21 0:58:20 08:35 6.99
904 6129 PETRY CATHERINE   A1 55 0:58:21 08:35 6.99
905 6716 DEPOITRE SOFIA VILLE DE LIÈGE JF 27 0:59:00 08:41 6.91
906 6797 BRAIVE CHRISTEL   A1 56 0:59:25 08:44 6.87
907 6354 FAGEL NATHALIE   A2 22 0:59:30 08:45 6.86
908 40235 AL-IBRAHIM YASSER LAMPIRIS SH 289 1:00:37 08:55 6.73
909 6310 SABATINI LAURA   SD 410 1:00:58 08:58 6.69
910 6201 DEBECKER CHRISTELLE   A1 57 1:02:56 09:15 6.48
911 6660 YURLEY XIOMARA CASTONO   SH 290 1:04:02 09:25 6.37
912 6663 TABORDA CRISTIAN   SH 291 1:04:02 09:25 6.37
913 6661 CRUZ KATHERINE   SD 411 1:04:03 09:25 6.37
914 6662 CRUZ KARLA MARIELA   SD 412 1:04:03 09:25 6.37
915 6823 LOPES CALDEIRA JOANA   SD 413 1:04:05 09:25 6.37
916 6320 BREUWER FLORENCE   A1 58 1:04:25 09:28 6.33
917 6318 BLEVE NADÈGE   A1 59 1:04:26 09:29 6.33
918 6319 FETT CATHERINE   A1 60 1:04:29 09:29 6.33
919 6202 EDOUARD TATIANA   SD 414 1:07:09 09:53 6.08
920 6152 VAN LINTHOUTH SARAH FOOD TALENTS SH 292 1:09:11 10:10 5.90
921 6153 ANCIAUX CHARLOTTE FOOD TALENTS SD 415 1:09:20 10:12 5.88
922 6659 BARNI JULIEN PAS V2 35 5:06:59 45:09 1.33